Teterboro, NJ

11:17 AM EST on November 21, 2019 (GMT -0500)
Teterboro

Weather History for KTEB - September, 2019

Change the Weather History Date:

Sunday, September 1, 2019

  Actual Average Record
Temperature  
Mean Temperature 70 °F -  
Max Temperature 82 °F 79 °F 97 °F (2010)
Min Temperature 62 °F 61 °F 54 °F (2017)
Cooling Degree Days 5    
Growing Degree Days 20 (Base 50)    
Moisture  
Dew Point 57 °F    
Average Humidity 62    
Maximum Humidity 75    
Minimum Humidity 48    
Precipitation  
Precipitation 0.00 in - - ()
Sea Level Pressure  
Sea Level Pressure 30.29 in    
Wind  
Wind Speed 5 mph ()    
Max Wind Speed 12 mph    
Max Gust Speed -    
Visibility 10.0 miles    
Events      
Averages and records for this station are not official NWS values.
T = Trace of Precipitation, MM = Missing Value Source: Averaged Metar Reports

Daily Weather History Graph

Daily Weather History Graph

Search for Another Location

Airport or City:

Astronomy

Sep. 01, 2019 Rise Set
Actual Time 6:22 AM EDT 7:28 PM EDT
Civil Twilight 5:54 AM EDT 7:57 PM EDT
Nautical Twilight 5:21 AM EDT 8:30 PM EDT
Astronomical Twilight 4:45 AM EDT 9:05 PM EDT
Moon 8:50 AM EDT (9/1) 9:13 PM EDT (9/1)
Length of Visible Light 14h 02m
Length of Day
13h 06m
Waxing Crescent, 8% of the Moon is Illuminated
Sep 1
Waxing Crescent
Sep 5
First Quarter
Sep 14
Full
Sep 21
Last Quarter
Sep 28
New

Hourly Weather History & Observations

Time (EDT) Temp. Dew Point Humidity Pressure Visibility Wind Dir Wind Speed Gust Speed Precip Events Conditions
12:51 AM 68.0 °F 52.0 °F 56% 30.30 in 10.0 mi North 3.5 mph - N/A   Clear
1:51 AM 66.0 °F 53.1 °F 63% 30.30 in 10.0 mi Calm Calm - N/A   Clear
2:51 AM 63.0 °F 54.0 °F 72% 30.31 in 10.0 mi Calm Calm - N/A   Clear
3:51 AM 62.1 °F 53.1 °F 72% 30.30 in 10.0 mi NW 3.5 mph - N/A   Clear
4:51 AM 62.1 °F 53.1 °F 72% 30.31 in 10.0 mi NNW 4.6 mph - N/A   Clear
5:51 AM 63.0 °F 54.0 °F 72% 30.31 in 10.0 mi North 3.5 mph - N/A   Clear
6:51 AM 62.1 °F 54.0 °F 75% 30.33 in 10.0 mi North 3.5 mph - N/A   Clear
7:51 AM 66.0 °F 54.0 °F 65% 30.33 in 10.0 mi NE 3.5 mph - N/A   Clear
8:51 AM 68.0 °F 54.0 °F 61% 30.34 in 10.0 mi NE 8.1 mph - N/A   Clear
9:51 AM 72.0 °F 55.9 °F 57% 30.34 in 10.0 mi East 5.8 mph - N/A   Clear
10:51 AM 73.0 °F 59.0 °F 61% 30.34 in 10.0 mi East 5.8 mph - N/A   Clear
11:51 AM 75.0 °F 59.0 °F 57% 30.33 in 10.0 mi East 6.9 mph - N/A   Clear
12:51 PM 78.1 °F 59.0 °F 52% 30.32 in 10.0 mi SE 10.4 mph - N/A   Partly Cloudy
1:51 PM 78.1 °F 57.9 °F 50% 30.30 in 10.0 mi South 11.5 mph - N/A   Partly Cloudy
2:51 PM 78.1 °F 57.0 °F 48% 30.28 in 10.0 mi South 10.4 mph - N/A   Mostly Cloudy
3:51 PM 78.1 °F 59.0 °F 52% 30.28 in 10.0 mi South 8.1 mph - N/A   Scattered Clouds
4:51 PM 75.9 °F 57.9 °F 54% 30.27 in 10.0 mi South 10.4 mph - N/A   Partly Cloudy
5:51 PM 75.0 °F 57.9 °F 55% 30.27 in 10.0 mi South 10.4 mph - N/A   Scattered Clouds
6:51 PM 73.9 °F 57.9 °F 57% 30.27 in 10.0 mi SSE 8.1 mph - N/A   Partly Cloudy
7:51 PM 73.0 °F 57.0 °F 57% 30.26 in 10.0 mi SSE 9.2 mph - N/A   Mostly Cloudy
8:51 PM 72.0 °F 59.0 °F 64% 30.25 in 10.0 mi SE 5.8 mph - N/A   Mostly Cloudy
9:51 PM 71.1 °F 61.0 °F 70% 30.24 in 10.0 mi SE 5.8 mph - N/A   Partly Cloudy
10:51 PM 71.1 °F 60.1 °F 68% 30.23 in 10.0 mi SE 8.1 mph - N/A   Scattered Clouds
11:51 PM 71.1 °F 60.1 °F 68% 30.22 in 10.0 mi SSE 5.8 mph - N/A   Mostly Cloudy